TIME,DELAY(SENSOR),PRES,OXYGEN,RAWTEMP,T(OPTODE),TCPHASE,FLUOR,BETA(BETA700),BETA(BETA412),BETA(BETA440),CDOM,C(CSC),ED(ED412.40),ED(ED444.00),ED(ED489.70),ED(ED554.30),LU(LU411.80),LU(LU443.40),LU(LU489.60),LU(LU554.10),COMP,TILTX,TILTY,CHECK
1350184748,5807,838.5000000000000000,42.4179801940918000,659.1392211914062000,4.6563072204589840,54.6259117126464840,52,101,90,78,81,15203,2147758381,2147423277,2148009060,2147875227,2147640996,2147067190,2148260269,2147198738,1038,5,13,38240
1350188344,5809,893.7299804687500000,45.5885086059570300,666.6715698242188000,4.4080848693847660,54.2514305114746100,52,101,88,79,80,15204,2147757878,2147420013,2148010057,2147874121,2147640749,2147061686,2148264036,2147199222,2677,4,13,32131
1350191944,5806,912.2199707031250000,45.8871803283691400,667.3939208984375000,4.3842468261718750,54.2205200195312500,52,99,89,78,81,15204,2147754953,2147420306,2148008566,2147872530,2147644214,2147064420,2148264100,2147197979,6,5,13,44168
1350195544,5810,944.6799926757812000,46.1629714965820300,668.8289184570312000,4.3368740081787110,54.1979484558105500,52,101,88,79,82,15108,2147760027,2147421595,2148010011,2147874934,2147642724,2147059885,2148259382,2147196507,89,5,13,41536
1350199144,5809,949.4799804687500000,46.0198593139648440,668.8035278320312000,4.3377127647399900,54.2155189514160160,53,101,91,79,81,15104,2147753718,2147422244,2148010980,2147877494,2147644251,2147060489,2148266112,2147198912,3255,5,13,21984
1350202744,5809,945.7100219726562000,46.4449081420898440,670.0629882812500000,4.2961177825927730,54.1691589355468750,53,99,87,79,81,15103,2147753371,2147418779,2148006857,2147875264,2147643593,2147063341,2148261321,2147204214,263,5,13,57995
1350206344,5812,975.5999755859375000,47.1916885375976560,670.8527832031250000,4.2700228691101070,54.0702705383300800,52,99,88,79,82,15100,2147756388,2147419730,2148011291,2147874971,2147646308,2147060726,2148264082,2147199478,429,5,13,19622
1350209944,5809,971.0999755859375000,47.1453895568847660,672.1275024414062000,4.2278919219970700,54.0907402038574200,52,101,88,79,83,15096,2147758518,2147420982,2148012260,2147874057,2147643456,2147056256,2148263762,2147196544,3336,5,13,4074
1350213544,5810,973.1699829101562000,47.5655288696289060,673.0493164062500000,4.1974139213562010,54.0480995178222660,52,98,87,79,80,15099,2147758445,2147422820,2148010386,2147874642,2147645961,2147056192,2148266834,2147200667,3342,5,13,44914
1350217144,5810,970.3400268554688000,47.9896507263183600,673.7545776367188000,4.1740889549255370,53.9979095458984400,53,99,89,81,82,15098,2147758445,2147422244,2148011520,2147875675,2147645138,2147060873,2148262482,2147200713,106,4,13,58210
1350220744,5804,974.0599975585938000,47.9802703857421900,673.8884887695312000,4.1696610450744630,53.9966583251953100,53,99,87,78,82,15098,2147761142,2147422098,2148007725,2147875456,2147648310,2147060690,2148264530,2147200045,47,5,13,32360
1350224344,5808,976.5200195312500000,47.7133903503418000,673.7902221679688000,4.1729130744934080,54.0399589538574200,54,104,84,80,82,15093,2147759268,2147420736,2148006857,2147874230,2147645056,2147058459,2148264521,2147198802,234,5,13,4546
1350227944,5811,976.9899902343750000,47.9212493896484400,673.4918823242188000,4.1827769279479980,54.0031814575195300,53,102,91,78,81,15098,2147758363,2147421266,2148008265,2147876050,2147647542,2147058112,2148266605,2147196498,30,5,13,3352
1350231544,5809,972.6400146484375000,47.8338317871093750,673.6276245117188000,4.1782908439636230,54.0174903869628900,52,135,86,79,81,15093,2147757211,2147420562,2148007113,2147877833,2147645458,2147057636,2148263917,2147197302,105,5,13,62355
1350235144,5808,982.9199829101562000,47.8278503417968750,673.0042724609375000,4.1989021301269530,54.0120086669921900,52,101,87,78,80,15094,2147756470,2147418825,2148006262,2147874258,2147644160,2147057225,2148265846,2147197065,3233,5,13,13151
1350238744,5811,977.7600097656250000,47.5104217529296900,673.0142211914062000,4.1985740661621090,54.0532302856445300,52,100,88,77,81,15089,2147757458,2147420205,2148007341,2147876105,2147646080,2147058240,2148260928,2147196827,174,5,13,20388
1350242344,5810,989.6799926757812000,47.4903297424316400,672.4257812500000000,4.2180309295654300,54.0524406433105500,52,99,87,80,82,15093,2147757138,2147419602,2148010541,2147875318,2147645302,2147057965,2148263286,2147197010,3320,4,13,60817
1350245944,5811,994.4199829101562000,46.9002685546875000,671.2227783203125000,4.2577948570251465,54.1224212646484400,54,98,85,80,81,15092,2147760603,2147421796,2148009124,2147872246,2147649554,2147055113,2148263780,2147195766,3590,4,13,26080
1350249544,5807,994.0499877929688000,46.6338310241699200,670.9091796875000000,4.2681579589843750,54.1532897949218750,52,98,86,78,80,15093,2147762029,2147421494,2148007387,2147873947,2147646884,2147066166,2148261732,2147196269,3147,5,13,52243
1350253144,5808,984.0300292968750000,46.8118896484375000,671.7786254882812000,4.2394261360168460,54.1398887634277340,52,98,88,80,80,15093,2147759195,2147420937,2148012178,2147873572,2147644406,2147057280,2148263195,2147198939,3468,4,13,34625
1350256744,5810,977.5000000000000000,47.2899208068847660,673.0496215820312000,4.1974029541015625,54.0871200561523440,53,99,88,79,80,15089,2147762669,2147421293,2148008128,2147874459,2147642102,2147063168,2148263588,2147199908,482,5,13,40812
1350260344,5807,975.7999877929688000,47.4698295593261700,674.0396118164062000,4.1646628379821780,54.0729598999023440,52,100,91,78,81,15086,2147758144,2147420068,2148009435,2147874267,2147645613,2147063652,2148265280,2147199881,3296,5,13,7660
1350263944,5808,977.3800048828125000,47.7510681152343750,674.4921875000000000,4.1496891975402830,54.0400695800781250,52,98,85,79,81,15086,2147761234,2147422326,2148009865,2147872914,2147645092,2147058852,2148263552,2147198573,3595,5,13,13459
1350267544,5805,979.4299926757812000,47.9978713989257800,674.4602050781250000,4.1507468223571780,54.0064315795898440,52,98,89,80,80,15086,2147760475,2147420891,2148011044,2147874331,2147642605,2147059346,2148266916,2147200219,3542,5,13,60561
1350271144,5809,982.4400024414062000,47.6686592102050800,674.4415283203125000,4.1513648033142090,54.0485305786132800,53,105,84,79,81,15084,2147759222,2147419337,2148009737,2147872118,2147648256,2147056173,2148267355,2147198107,3302,5,13,63486
1350274744,5809,982.1900024414062000,47.8907814025878900,674.5568237304688000,4.1475520133972170,54.0183792114257800,52,100,90,78,81,15081,2147757650,2147423387,2148010560,2147876333,2147643410,2147056850,2148259300,2147201755,3498,5,13,60037
1350278344,5808,984.7500000000000000,47.5520591735839840,673.3295898437500000,4.1881451606750490,54.0557594299316400,53,98,90,79,81,15082,2147759277,2147421266,2148008192,2147876598,2147643675,2147065572,2148263177,2147196918,99,5,13,36506
1350281944,5807,989.0999755859375000,47.6208190917968750,673.6699829101562000,4.1768879890441895,54.0440788269043000,52,98,87,81,81,15083,2147759369,2147422848,2148011849,2147875410,2147642971,2147062308,2148265152,2147198454,612,5,13,31395
1350285544,5811,984.2199707031250000,47.1488609313964840,672.8784790039062000,4.2030639648437500,54.1051406860351560,52,98,93,81,82,15079,2147760274,2147421924,2148009709,2147877723,2147646884,2147056347,2148262912,2147201426,251,5,13,6378
1350289144,5812,994.7899780273438000,46.6251983642578100,672.1480712890625000,4.2272129058837890,54.1710510253906250,52,100,87,80,82,15072,2147756205,2147421860,2148008192,2147875629,2147646016,2147063734,2148262848,2147200018,830,5,13,47899
1350292744,5810,996.1599731445312000,46.3440895080566400,671.9907836914062000,4.2324118614196780,54.2065811157226560,52,98,87,79,80,15081,2147755876,2147420836,2148010980,2147875684,2147643620,2147060461,2148265124,2147199332,537,5,13,36515
1350296344,5808,992.4799804687500000,46.8527107238769500,672.4863281250000000,4.2160320281982420,54.1428604125976560,52,100,89,78,81,15080,2147758482,2147420626,2148007533,2147876672,2147645293,2147068928,2148265920,2147200548,260,5,13,28270
1350299944,5808,989.8099975585938000,47.5051193237304700,672.9854736328125000,4.1995258331298830,54.0581588745117200,53,99,86,79,82,15083,2147758189,2147423232,2148007634,2147877284,2147644443,2147059748,2148263890,2147198921,3270,5,13,15120
1350303544,5811,983.9400024414062000,47.1232299804687500,673.0501098632812000,4.1973881721496580,54.1104698181152340,52,100,86,78,81,15077,2147761773,2147423360,2148007616,2147873408,2147646345,2147064502,2148264475,2147198464,2954,5,13,22422
1350307144,5810,983.2399902343750000,47.8425903320312500,674.7575073242188000,4.1409091949462890,54.0336685180664060,52,96,88,80,82,15082,2147761206,2147420388,2148009782,2147876809,2147645266,2147062957,2148266212,2147200832,310,5,13,47795
1350310744,5807,991.0800170898438000,47.9149513244628900,674.9390258789062000,4.1349067687988280,54.0235099792480500,53,100,91,79,81,15081,2147759954,2147421312,2148010587,2147874770,2147644937,2147059721,2148263277,2147199780,193,5,13,57563
1350314344,5809,980.0200195312500000,47.9274215698242200,674.9340820312500000,4.1350650787353520,54.0208587646484400,52,101,87,80,81,15080,2147758043,2147421961,2148007305,2147876772,2147648365,2147055945,2148265206,2147195904,3413,5,13,63330
1350317944,5812,989.2899780273438000,47.8767089843750000,674.9569702148438000,4.1343121528625490,54.0303382873535160,52,100,89,79,82,15076,2147759186,2147420297,2148008987,2147877449,2147646400,2147065773,2148259702,2147197156,359,5,13,33133
1350321544,5809,987.6300048828125000,47.7204589843750000,674.1469116210938000,4.1611142158508300,54.0379905700683600,52,99,87,79,81,15077,2147756918,2147418468,2148012086,2147874880,2147644059,2147059712,2148264256,2147199186,450,5,13,64617
1350325144,5809,980.2299804687500000,47.6880111694335940,674.6480712890625000,4.1445307731628420,54.0537605285644500,52,98,84,80,81,15078,2147760420,2147421211,2148010578,2147873280,2147644763,2147062811,2148261092,2147196690,336,5,13,39777
1350328744,5810,992.7500000000000000,47.8587608337402340,673.4752807617188000,4.1833248138427730,54.0101890563964840,52,99,90,79,82,15075,2147758107,2147423433,2148010459,2147873572,2147646464,2147058020,2148262116,2147194048,3349,5,13,6132
1350330056,5811,997.7700195312500000,47.5183296203613300,672.7252197265625000,4.2081317901611330,54.0479202270507800,53,112,88,79,82,15188,2147760393,2147419657,2148011510,2147871497,2147642404,2147064438,2148265005,2147195995,243,5,13,18977
